Home > Weather > Tiruchirappalli > Past weeks

Flag for India Weather for the Past 2 Weeks in Tiruchirappalli, Tamil Nadu, India

Now
90 °F

Haze.


Feels Like: 92 °F
Forecast: 74 / 94 °F
Wind: 6 mph from East

Location: Tiruchchirapalli

Current Time: Feb 7, 2016 at 4:54:42 PM

Latest Report: Feb 7, 2016 at 4:30 PM


Visibility: 3 mi

Pressure: 29.83 "Hg

Humidity: 46%

Dew point: 66 °F

Location of TiruchirappalliLocation

Historic Weather in Tiruchirappalli — Graph

°F

Tiruchirappalli Temperature Yesterday

Maximum temperature yesterday: 90 °F (at 2:00 PM)
Minimum temperature yesterday: 70 °F (at 6:00 AM)
Average temperature yesterday: 80 °F

High & Low Weather Summary for the Past Weeks

 TemperatureHumidityPressure
High91 °F (Jan 29, 2:30 PM)94% (Jan 25, 1:30 AM)30.04 "Hg (Jan 25, 1:30 AM)
Low68 °F (Feb 4, 5:00 AM)38% (Feb 4, 2:30 PM)29.56 "Hg (Feb 6, 3:00 PM)
Average80 °F68%29.93 "Hg
* Reported Jan 23 2:30 PM — Feb 7 3:00 PM, Tiruchirappalli, Weather by CustomWeather, © 2016

Note: Actual official high and low records may vary slightly from our data, if they occured in-between our weather recording intervals... More about our weather records

Advertising

Tiruchirappalli Weather History for the Previous 24 Hours

 ConditionsComfort  
Time TempWeatherWind HumidityBarometerVisibility
3:00 PM
Sun, Feb 7
91 °FHaze.6 mph46%29.86 "Hg2 mi
2:30 PM90 °FHaze.5 mph49%29.86 "Hg2 mi
12:30 PM86 °FHaze.6 mph55%29.92 "Hg2 mi
12:00 PM86 °FHaze.7 mph55%29.95 "Hg2 mi
11:30 AM84 °FHaze.5 mph58%29.98 "Hg1 mi
11:00 AM84 °FHaze.9 mph66%29.98 "Hg1 mi
10:30 AM82 °FHaze.8 mph66%29.98 "Hg1 mi
9:00 AM79 °FFog.6 mph74%29.98 "Hg1 mi
2:00 AM75 °FFog.3 mph89%29.89 "Hg2 mi
1:30 AM75 °FFog.2 mph89%29.89 "Hg2 mi
1:00 AM77 °FFog.2 mph83%29.92 "Hg2 mi
12:30 AM77 °FHaze.3 mph79%29.92 "Hg2 mi
12:00 AM77 °FFog.3 mph79%29.92 "Hg2 mi
11:30 PM
Sat, Feb 6
77 °FFog.5 mph79%29.92 "Hg2 mi
11:00 PM77 °FFog.6 mph79%29.95 "Hg2 mi
10:30 PM79 °FHaze.6 mph74%29.95 "Hg2 mi
10:00 PM79 °FHaze.8 mph74%29.95 "Hg2 mi
9:30 PM81 °FHaze.9 mph70%29.92 "Hg2 mi
9:00 PM81 °FHaze.9 mph70%29.92 "Hg2 mi
8:30 PM81 °FHaze.10 mph70%29.89 "Hg2 mi
8:00 PM81 °FHaze.10 mph66%29.89 "Hg2 mi
7:30 PM82 °FHaze.8 mph62%29.86 "Hg3 mi
7:00 PM82 °FHaze.5 mph62%29.86 "Hg3 mi
6:00 PM86 °FHaze.7 mph52%29.83 "Hg3 mi
5:30 PM86 °FHaze.7 mph49%29.80 "Hg3 mi
5:00 PM88 °FHaze.8 mph43%29.80 "Hg3 mi
4:30 PM88 °FHaze.8 mph46%29.80 "Hg3 mi
4:00 PM88 °FHaze.8 mph46%29.80 "Hg2 mi
Weather by CustomWeather, © 2016

See weather overviewHow to use our weather pages